SA3PJN-WX Weather Reports


time (UTC)temp
C
wind
direction
speed
KPH
gust
KPH
rain 1hr
cm
rain 24hr
cm
rain mn
cm
humidity
%
barometer
mb
20260508044045 9 163 1.6 6.4 0.00 0.00 0.00 50 978.0
20260508043545 8 128 3.2 6.4 0.00 0.00 0.00 54 978.0
20260508043045 6 251 3.2 6.4 0.00 0.00 0.00 55 978.0
20260508042545 6 246 3.2 6.4 0.00 0.00 0.00 56 978.0
20260508042015 6 243 3.2 8.0 0.00 0.00 0.00 56 978.0
20260508041515 6 257 3.2 8.0 0.00 0.00 0.00 56 978.0
20260508040945 6 247 3.2 6.4 0.00 0.00 0.00 56 978.0
20260508040445 6 276 3.2 6.4 0.00 0.00 0.00 55 978.0
20260508035945 6 293 3.2 6.4 0.00 0.00 0.00 54 977.5
20260508035445 6 307 3.2 6.4 0.00 0.00 0.00 53 977.6
20260508034945 5 294 3.2 6.4 0.00 0.00 0.00 54 977.6
20260508034445 6 282 1.6 6.4 0.00 0.00 0.00 54 977.5
20260508033945 6 305 1.6 6.4 0.00 0.00 0.00 55 978.0
20260508033445 5 297 1.6 6.4 0.00 0.00 0.00 61 977.5
20260508032915 3 292 3.2 6.4 0.00 0.00 0.00 62 977.4
20260508032415 3 288 1.6 4.8 0.00 0.00 0.00 64 977.4
20260508031914 3 294 1.6 3.2 0.00 0.00 0.00 65 977.4
20260508031414 3 284 1.6 4.8 0.00 0.00 0.00 68 977.4
20260508030914 2 136 3.2 4.8 0.00 0.00 0.00 72 977.4
20260508030414 1 258 4.8 6.4 0.00 0.00 0.00 76 977.5
20260508025844 0 246 4.8 6.4 0.00 0.00 0.00 80 977.3
20260508025344 0 255 4.8 6.4 0.00 0.00 0.00 84 977.3
20260508024844 0 248 4.8 6.4 0.00 0.00 0.00 87 977.2
20260508024344 0 240 4.8 6.4 0.00 0.00 0.00 86 977.2
20260508023844 -1 250 4.8 6.4 0.00 0.00 0.00 87 977.2
20260508023314 -1 270 4.8 6.4 0.00 0.00 0.00 86 977.3
20260508022814 -1 263 3.2 6.4 0.00 0.00 0.00 85 977.3
20260508022314 0 274 3.2 6.4 0.00 0.00 0.00 83 977.3
20260508021744 0 312 3.2 6.4 0.00 0.00 0.00 81 977.3
20260508021214 0 352 1.6 6.4 0.00 0.00 0.00 81 977.2
20260508020714 0 8 1.6 6.4 0.00 0.00 0.00 80 977.2
20260508020144 0 186 0.0 3.2 0.00 0.00 0.00 82 977.4
20260508015644 0 151 0.0 3.2 0.00 0.00 0.00 81 977.3
20260508015144 0 135 0.0 3.2 0.00 0.00 0.00 80 977.3
20260508014614 0 189 0.0 3.2 0.00 0.00 0.00 78 977.2
20260508014114 0 179 0.0 3.2 0.00 0.00 0.00 79 977.2
20260508013614 0 204 0.0 3.2 0.00 0.00 0.00 76 977.2
20260508013044 0 272 1.6 4.8 0.00 0.00 0.00 75 977.1
20260508012544 0 243 1.6 4.8 0.00 0.00 0.00 76 977.1
20260508012014 0 240 1.6 3.2 0.00 0.00 0.00 76 977.0
20260508011514 0 230 1.6 3.2 0.00 0.00 0.00 75 977.2
20260508011014 0 278 1.6 3.2 0.00 0.00 0.00 75 977.1
20260508010514 0 251 0.0 1.6 0.00 0.00 0.00 74 977.1
20260508010014 0 267 0.0 1.6 0.00 0.00 0.00 73 977.2
20260508005514 1 26 0.0 3.2 0.00 0.00 0.00 73 977.1
20260508005014 1 276 1.6 4.8 0.00 0.00 0.00 71 977.2
20260508004514 1 345 1.6 4.8 0.00 0.00 0.00 71 977.1
20260508004014 1 46 1.6 6.4 0.00 0.00 0.00 71 977.1
20260508003514 1 66 1.6 6.4 0.00 0.00 0.00 72 977.0
20260508003014 0 38 0.0 3.2 0.00 0.00 0.00 73 977.0
20260508002514 0 259 0.0 1.6 0.00 0.00 0.00 73 977.0
20260508002013 0 270 1.6 3.2 0.00 0.00 0.00 73 977.0
20260508001443 0 274 1.6 3.2 0.00 0.00 0.00 72 977.0
20260508000943 1 331 1.6 3.2 0.00 0.00 0.00 71 977.0
20260508000414 1 283 1.6 1.6 0.00 0.00 0.00 71 977.0
20260507235913 1 235 0.0 1.6 0.00 0.00 0.00 71 977.0
20260507235413 1 252 0.0 3.2 0.00 0.00 0.00 71 977.0
20260507234913 1 267 1.6 3.2 0.00 0.00 0.00 70 977.0
20260507234343 1 210 1.6 1.6 0.00 0.00 0.00 71 977.0
20260507233843 1 237 1.6 3.2 0.00 0.00 0.00 71 977.0
20260507233313 1 283 1.6 3.2 0.00 0.00 0.00 71 976.6
20260507232813 1 262 3.2 3.2 0.00 0.00 0.00 71 976.5
20260507232313 1 268 3.2 3.2 0.00 0.00 0.00 71 976.4
20260507231743 1 258 1.6 3.2 0.00 0.00 0.00 71 976.3
20260507231243 1 280 1.6 3.2 0.00 0.00 0.00 71 976.4
20260507230743 1 263 1.6 3.2 0.00 0.00 0.00 70 976.3
20260507230243 1 273 1.6 3.2 0.00 0.00 0.00 70 976.3
20260507225743 1 261 3.2 3.2 0.00 0.00 0.00 70 976.3
20260507225243 1 272 3.2 4.8 0.00 0.00 0.00 70 976.3
20260507224743 1 275 3.2 4.8 0.00 0.00 0.00 70 976.2
20260507224243 1 272 3.2 4.8 0.00 0.00 0.00 70 976.2
20260507223743 1 274 3.2 3.2 0.00 0.00 0.00 69 976.2
20260507223243 1 279 3.2 3.2 0.00 0.00 0.00 69 976.2
20260507222743 1 276 3.2 3.2 0.00 0.00 0.00 68 976.1
20260507222243 1 260 3.2 4.8 0.00 0.00 0.00 68 976.2
20260507221743 1 262 4.8 8.0 0.00 0.00 0.00 68 976.1
20260507221213 2 272 4.8 8.0 0.00 0.00 0.00 66 976.1
20260507220643 2 276 4.8 6.4 0.00 0.00 0.00 66 976.2
20260507220143 2 270 3.2 6.4 0.00 0.00 0.00 66 976.0
20260507215643 2 294 1.6 6.4 0.00 0.00 0.00 67 976.1
20260507215143 2 259 0.0 3.2 0.00 0.00 0.00 67 976.0
20260507214643 2 240 0.0 3.2 0.00 0.00 0.00 66 976.0
20260507214143 2 114 1.6 3.2 0.00 0.00 0.00 64 976.0
20260507213643 2 27 3.2 8.0 0.00 0.00 0.00 65 976.1
20260507213143 2 305 4.8 9.7 0.00 0.00 0.00 64 976.0
20260507212613 3 262 6.4 12.9 0.00 0.00 0.00 64 976.0
20260507212043 3 248 6.4 12.9 0.00 0.00 0.00 64 976.0
20260507211513 3 271 6.4 12.9 0.00 0.00 0.00 64 976.0
20260507211013 3 253 6.4 12.9 0.00 0.00 0.00 64 976.0
20260507210513 3 246 6.4 11.3 0.00 0.00 0.00 64 975.6
20260507210013 3 257 6.4 12.9 0.00 0.00 0.00 63 975.6
20260507205513 3 237 6.4 12.9 0.00 0.00 0.00 63 975.4
20260507205013 3 261 6.4 12.9 0.00 0.00 0.00 62 975.5
20260507204513 3 234 6.4 14.5 0.00 0.00 0.00 62 975.4
20260507204012 3 236 6.4 14.5 0.00 0.00 0.00 61 975.4
20260507203512 3 232 6.4 12.9 0.00 0.00 0.00 60 975.2
20260507203012 3 245 6.4 16.1 0.00 0.00 0.00 60 975.1
20260507202512 3 263 6.4 16.1 0.00 0.00 0.00 59 975.0
20260507202012 4 245 4.8 12.9 0.00 0.00 0.00 58 975.1
20260507201512 4 202 4.8 12.9 0.00 0.00 0.00 58 975.1
20260507201012 4 197 4.8 12.9 0.00 0.00 0.00 58 975.0
20260507200512 4 232 4.8 11.3 0.00 0.00 0.00 58 975.0
20260507200012 4 226 4.8 11.3 0.00 0.00 0.00 57 975.0
20260507195512 4 260 4.8 11.3 0.00 0.00 0.00 56 975.0
20260507195012 5 254 4.8 11.3 0.00 0.00 0.00 55 975.0
20260507194442 5 240 4.8 9.7 0.00 0.00 0.00 54 975.0
20260507193912 5 242 3.2 8.0 0.00 0.00 0.00 53 975.0
20260507193412 5 220 3.2 11.3 0.00 0.00 0.00 53 975.0
20260507192912 5 210 4.8 12.9 0.00 0.00 0.00 53 975.0
20260507192342 6 194 4.8 12.9 0.00 0.00 0.00 52 974.6
20260507191842 6 173 6.4 14.5 0.00 0.00 0.00 50 974.6
20260507191342 6 182 6.4 16.1 0.00 0.00 0.00 48 974.5
20260507190842 6 152 6.4 16.1 0.00 0.00 0.00 47 974.3
20260507190342 7 136 6.4 17.7 0.00 0.00 0.00 45 974.3
20260507185842 7 187 4.8 17.7 0.00 0.00 0.00 43 974.3
20260507185312 7 120 3.2 17.7 0.00 0.00 0.00 42 974.2
20260507184812 7 98 3.2 12.9 0.00 0.00 0.00 41 974.2
20260507184312 7 191 3.2 12.9 0.00 0.00 0.00 41 974.2
20260507183812 7 99 3.2 12.9 0.00 0.00 0.00 43 974.0
20260507183312 6 97 3.2 16.1 0.00 0.00 0.00 45 974.0
20260507182812 6 155 3.2 16.1 0.00 0.00 0.00 44 974.0
20260507182312 7 145 4.8 16.1 0.00 0.00 0.00 43 974.0
20260507181812 7 122 4.8 20.9 0.00 0.00 0.00 43 974.0
20260507181312 7 90 6.4 20.9 0.00 0.00 0.00 43 973.6
20260507180812 7 136 6.4 17.7 0.00 0.00 0.00 40 974.0
20260507180312 7 187 6.4 17.7 0.00 0.00 0.00 38 973.6
20260507175812 7 175 4.8 17.7 0.00 0.00 0.00 38 973.5
20260507175242 7 127 4.8 17.7 0.00 0.00 0.00 37 973.5
20260507174742 7 184 4.8 17.7 0.00 0.00 0.00 38 973.4
20260507174242 7 152 4.8 17.7 0.00 0.00 0.00 37 973.4
20260507173712 8 161 4.8 12.9 0.00 0.00 0.00 40 973.4
20260507173212 8 124 1.6 12.9 0.00 0.00 0.00 39 973.4
20260507172712 8 336 1.6 14.5 0.00 0.00 0.00 39 973.3
20260507172212 8 189 3.2 14.5 0.00 0.00 0.00 37 973.2
20260507171712 7 40 3.2 14.5 0.00 0.00 0.00 38 973.2
20260507171212 7 98 3.2 14.5 0.00 0.00 0.00 38 973.2
20260507170711 7 151 3.2 14.5 0.00 0.00 0.00 39 973.0
20260507170211 7 133 4.8 14.5 0.00 0.00 0.00 41 973.0
20260507165711 7 131 4.8 14.5 0.00 0.00 0.00 38 973.0
20260507165211 8 73 4.8 12.9 0.00 0.00 0.00 41 973.0
20260507164711 7 246 4.8 16.1 0.00 0.00 0.00 39 973.0
20260507164211 8 135 6.4 16.1 0.00 0.00 0.00 40 973.0
20260507163711 7 197 8.0 20.9 0.00 0.00 0.00 41 973.0
20260507163211 7 184 9.7 20.9 0.00 0.00 0.00 40 973.0
20260507162711 7 173 8.0 20.9 0.00 0.00 0.00 39 973.0
20260507162211 8 187 6.4 20.9 0.00 0.00 0.00 40 973.0
20260507161711 8 162 6.4 19.3 0.00 0.00 0.00 41 973.0
20260507161211 8 187 6.4 19.3 0.00 0.00 0.00 39 973.0
20260507160711 8 236 4.8 14.5 0.00 0.00 0.00 38 973.0
20260507160141 8 208 4.8 9.7 0.00 0.00 0.00 39 973.0
20260507155641 8 197 3.2 14.5 0.00 0.00 0.00 39 973.0
20260507155111 8 66 6.4 16.1 0.00 0.00 0.00 40 973.0
20260507154541 8 150 8.0 29.0 0.00 0.00 0.00 40 973.0
20260507154041 8 183 9.7 29.0 0.00 0.00 0.00 41 972.6
20260507153541 8 187 9.7 20.9 0.00 0.00 0.00 41 973.0
20260507153011 8 199 9.7 22.5 0.00 0.00 0.00 41 973.0
20260507152511 8 226 11.3 30.6 0.00 0.00 0.00 40 973.0
20260507151941 8 187 11.3 30.6 0.00 0.00 0.00 39 972.6
20260507151411 8 238 9.7 24.1 0.00 0.00 0.00 38 972.6
20260507150911 8 195 9.7 24.1 0.00 0.00 0.00 39 972.5
20260507150411 8 199 9.7 24.1 0.00 0.00 0.00 38 972.4
20260507145841 8 172 8.0 20.9 0.00 0.00 0.00 38 972.4
20260507145341 9 151 8.0 20.9 0.00 0.00 0.00 35 972.3
20260507144811 10 192 6.4 20.9 0.00 0.00 0.00 33 972.4
20260507144241 11 95 4.8 14.5 0.00 0.00 0.00 33 972.3
20260507143741 12 88 3.2 12.9 0.00 0.00 0.00 31 972.4
20260507143241 12 94 4.8 20.9 0.00 0.00 0.00 33 972.4
20260507142711 11 67 3.2 20.9 0.00 0.00 0.00 34 972.3
20260507142211 11 82 3.2 16.1 0.00 0.00 0.00 35 972.4
20260507141641 10 65 4.8 16.1 0.00 0.00 0.00 34 972.3
20260507141141 9 139 6.4 19.3 0.00 0.00 0.00 38 972.4
20260507140611 8 119 8.0 19.3 0.00 0.00 0.00 40 972.3
20260507140111 8 182 6.4 19.3 0.00 0.00 0.00 39 972.2
20260507135610 8 184 4.8 14.5 0.00 0.00 0.00 37 972.3
20260507135111 8 111 4.8 16.1 0.00 0.00 0.00 37 972.3
20260507134610 8 170 4.8 19.3 0.00 0.00 0.00 36 972.2
20260507134110 9 91 6.4 20.9 0.00 0.00 0.00 36 972.1
20260507133610 9 195 8.0 20.9 0.00 0.00 0.00 38 972.1
20260507133110 8 180 8.0 20.9 0.00 0.00 0.00 38 972.0
20260507132610 9 102 8.0 25.7 0.00 0.00 0.00 37 972.0
20260507132110 8 173 6.4 25.7 0.00 0.00 0.00 36 972.0
20260507131541 10 231 4.8 19.3 0.00 0.00 0.00 35 972.0
20260507131040 10 2 6.4 14.5 0.00 0.00 0.00 35 972.0
20260507130540 10 277 6.4 17.7 0.00 0.00 0.00 34 972.0
20260507130040 9 213 6.4 22.5 0.00 0.00 0.00 35 972.0
20260507125510 10 134 6.4 22.5 0.00 0.00 0.00 37 972.0
20260507124940 10 202 6.4 22.5 0.00 0.00 0.00 37 972.1
20260507124410 8 191 8.0 27.4 0.00 0.00 0.00 37 972.1
20260507123910 8 184 9.7 27.4 0.00 0.00 0.00 39 972.0
20260507123410 8 184 9.7 24.1 0.00 0.00 0.00 41 972.0
20260507122840 8 190 9.7 24.1 0.00 0.00 0.00 41 972.1
20260507122340 8 77 9.7 25.7 0.00 0.00 0.00 42 972.0
20260507121840 8 133 9.7 25.7 0.00 0.00 0.00 41 972.0
20260507121310 9 4 8.0 24.1 0.00 0.00 0.00 41 972.0
20260507120810 9 219 8.0 24.1 0.00 0.00 0.00 41 972.0
20260507120240 10 124 8.0 24.1 0.00 0.00 0.00 40 972.0
20260507115740 9 109 8.0 24.1 0.00 0.00 0.00 40 972.0
20260507115240 9 126 9.7 24.1 0.00 0.00 0.00 41 972.0
20260507114740 8 154 9.7 27.4 0.00 0.00 0.00 41 972.0
20260507114240 8 217 9.7 27.4 0.00 0.00 0.00 44 972.0
20260507113740 8 180 9.7 27.4 0.00 0.00 0.00 43 972.0
20260507113240 8 236 8.0 20.9 0.00 0.00 0.00 45 972.0
20260507112740 8 129 8.0 25.7 0.00 0.00 0.00 44 972.0
20260507112240 8 256 9.7 27.4 0.00 0.00 0.00 46 972.0
20260507111740 8 212 9.7 27.4 0.00 0.00 0.00 46 971.6
20260507111210 8 119 8.0 20.9 0.00 0.00 0.00 45 971.6
20260507110710 8 80 8.0 22.5 0.00 0.00 0.00 45 971.6
20260507110140 7 176 9.7 22.5 0.00 0.00 0.00 48 971.6
20260507105640 7 125 8.0 19.3 0.00 0.00 0.00 49 971.6
20260507105140 7 184 8.0 20.9 0.00 0.00 0.00 47 971.6
20260507104640 8 116 6.4 22.5 0.00 0.00 0.00 48 971.5
20260507104140 9 145 6.4 22.5 0.00 0.00 0.00 45 971.5
20260507103610 10 170 4.8 22.5 0.00 0.00 0.00 43 971.5
20260507103040 10 340 4.8 19.3 0.00 0.00 0.00 42 971.4
20260507102510 11 116 4.8 17.7 0.00 0.00 0.00 42 971.4
20260507101940 11 132 6.4 17.7 0.00 0.00 0.00 43 971.4
20260507101440 12 101 4.8 16.1 0.00 0.00 0.00 41 971.3
20260507100940 12 122 4.8 14.5 0.00 0.00 0.00 44 971.6
20260507100440 11 169 4.8 17.7 0.00 0.00 0.00 45 971.7
20260507095940 11 113 6.4 17.7 0.00 0.00 0.00 44 971.3
20260507095440 11 173 6.4 17.7 0.00 0.00 0.00 46 971.3
20260507094910 11 198 4.8 12.9 0.00 0.00 0.00 44 971.2
20260507094409 11 179 4.8 17.7 0.00 0.00 0.00 46 971.6
20260507093840 11 168 4.8 17.7 0.00 0.00 0.00 47 971.5
20260507093339 11 217 4.8 12.9 0.00 0.00 0.00 45 971.3
20260507092839 11 189 4.8 14.5 0.00 0.00 0.00 46 971.6
20260507092310 11 200 4.8 14.5 0.00 0.00 0.00 46 971.5
20260507091809 10 145 4.8 22.5 0.00 0.00 0.00 50 971.5
20260507091309 10 264 6.4 22.5 0.00 0.00 0.00 53 971.5
20260507090809 10 95 4.8 17.7 0.00 0.00 0.00 48 971.2
20260507090309 11 144 4.8 14.5 0.00 0.00 0.00 50 971.4
20260507085809 10 243 4.8 16.1 0.00 0.00 0.00 53 971.5
20260507085309 10 153 4.8 19.3 0.00 0.00 0.00 52 971.3
20260507084809 10 183 4.8 19.3 0.00 0.00 0.00 53 971.3
20260507084309 10 173 4.8 16.1 0.00 0.00 0.00 52 971.4
20260507083809 10 99 4.8 16.1 0.00 0.00 0.00 53 971.2
20260507083309 10 139 6.4 16.1 0.00 0.00 0.00 54 971.2
20260507082809 9 151 4.8 16.1 0.00 0.00 0.00 56 971.1
20260507082309 10 135 4.8 14.5 0.00 0.00 0.00 55 971.2
20260507081809 10 158 4.8 19.3 0.00 0.00 0.00 57 971.1
20260507081309 9 144 4.8 19.3 0.00 0.00 0.00 57 971.1
20260507080739 9 110 4.8 19.3 0.00 0.00 0.00 57 971.1
20260507080239 9 132 4.8 14.5 0.00 0.00 0.00 56 971.1
20260507075709 9 147 4.8 14.5 0.00 0.00 0.00 60 971.1
20260507075209 8 128 4.8 14.5 0.00 0.00 0.00 58 971.0
20260507074709 9 181 4.8 14.5 0.00 0.00 0.00 60 971.0
20260507074209 9 166 4.8 12.9 0.00 0.00 0.00 58 971.1
20260507073709 10 148 4.8 12.9 0.00 0.00 0.00 57 970.9
20260507073209 10 165 4.8 12.9 0.00 0.00 0.00 58 970.9
20260507072709 9 160 4.8 11.3 0.00 0.00 0.00 59 970.9
20260507072209 9 112 3.2 11.3 0.00 0.00 0.00 57 970.8
20260507071709 10 185 3.2 11.3 0.00 0.00 0.00 57 970.8
20260507071209 9 114 3.2 11.3 0.00 0.00 0.00 59 970.9
20260507070709 8 88 4.8 17.7 0.00 0.00 0.00 58 970.9
20260507070209 7 150 4.8 17.7 0.00 0.00 0.00 58 970.7
20260507065708 7 111 6.4 17.7 0.00 0.00 0.00 60 970.8
20260507065208 6 69 6.4 16.1 0.00 0.00 0.00 65 970.8
20260507064709 6 189 6.4 16.1 0.00 0.00 0.00 62 970.5
20260507064208 6 158 4.8 16.1 0.00 0.00 0.00 60 970.4
20260507063708 6 208 6.4 20.9 0.00 0.00 0.00 61 970.7
20260507063208 6 184 6.4 20.9 0.00 0.00 0.00 64 970.6
20260507062708 5 170 8.0 20.9 0.00 0.00 0.00 66 970.2
20260507062208 5 191 6.4 17.7 0.00 0.00 0.00 66 970.3
20260507061708 5 146 8.0 20.9 0.00 0.00 0.00 66 970.2
20260507061208 5 157 8.0 20.9 0.00 0.00 0.00 67 970.2
20260507060708 5 207 8.0 20.9 0.00 0.00 0.00 68 970.1
20260507060208 5 189 8.0 20.9 0.00 0.00 0.00 67 970.2
20260507055708 5 164 6.4 20.9 0.00 0.00 0.00 66 970.2
20260507055138 6 178 4.8 14.5 0.00 0.00 0.00 64 970.2
20260507054638 6 204 4.8 12.9 0.00 0.00 0.00 64 970.4
20260507054138 6 182 4.8 16.1 0.00 0.00 0.00 64 970.2
20260507053638 5 183 4.8 16.1 0.00 0.00 0.00 64 970.1
20260507053138 6 163 4.8 11.3 0.00 0.00 0.00 64 970.6
20260507052638 6 195 4.8 14.5 0.00 0.00 0.00 64 970.3
20260507052138 6 169 4.8 14.5 0.00 0.00 0.00 63 970.0
20260507051638 6 149 4.8 12.9 0.00 0.00 0.00 65 970.3
20260507051138 6 154 4.8 12.9 0.00 0.00 0.00 65 970.4
20260507050638 5 207 4.8 12.9 0.00 0.00 0.00 64 970.0
20260507050108 6 285 4.8 12.9 0.00 0.00 0.00 63 970.3
20260507045608 6 144 3.2 11.3 0.00 0.00 0.00 63 970.1
20260507045038 7 197 1.6 9.7 0.00 0.00 0.00 60 970.0
20260507044508 7 104 1.6 9.7 0.00 0.00 0.00 62 970.1